This demonstration page uses our WeatherBlox Daily Observations layout. Learn more.

Left ArrowRight Arrow

36.19886, -115.1175

Hourly Observations for December 14, 2021

Temp ( °F °C ) Dew Point ( °F °C ) Humidity (%) Winds ( mph kmh ) Pressure ( in mb ) Visibility ( mi km ) Precip ( " mm )
12:53 am 00:53 Clear 49 9.4 27 -2.8 43 43 E 12 19 29.97 1015 10 16 0.00 0.00
1:53 am 01:53 Clear 50 10 27 -2.8 41 41 E 8 13 29.97 1015 10 16 0.00 0.00
2:53 am 02:53 Clear 48 8.9 27 -2.8 44 44 Calm 29.96 1015 10 16 0.00 0.00
3:53 am 03:53 Clear 48 8.9 31 -0.6 52 52 NE 9 15 29.94 1014 10 16 0.00 0.00
4:53 am 04:53 Clear 44 6.7 29 -1.7 55 55 Calm 29.95 1014 10 16 0.00 0.00
5:53 am 05:53 Mostly Clear 43 6.1 29 -1.7 58 58 WNW 3 6 29.94 1014 10 16 0.00 0.00
6:53 am 06:53 Mostly Sunny 44 6.7 30 -1.1 58 58 Calm 29.94 1014 10 16 0.00 0.00
7:53 am 07:53 Cloudy 49 9.4 33 0.6 55 55 NE 3 6 29.94 1014 10 16 0.00 0.00
8:53 am 08:53 Cloudy 52 11.1 36 2.2 55 55 SE 8 13 29.93 1013 10 16 0.00 0.00
9:53 am 09:53 Cloudy 55 12.8 37 2.8 51 51 ESE 9 15 29.91 1013 10 16 0.00 0.00
10:53 am 10:53 Cloudy 56 13.3 37 2.8 49 49 SE 16 26 29.85 1011 10 16 0.00 0.00
11:53 am 11:53 Cloudy 57 13.9 38 3.3 49 49 SE 14 22 29.78 1009 10 16 0.00 0.00
12:53 pm 12:53 Cloudy with Light Rain 56 13.3 41 5 57 57 SSE 20 31 29.72 1006 10 16 0.00 0.00
1:53 pm 13:53 Cloudy with Light Rain 55 12.8 43 6.1 64 64 SE 18 30 29.67 1005 9 14 0.00 0.00
2:53 pm 14:53 Cloudy with Light Rain 55 12.8 42 5.6 62 62 SSE 16 26 29.62 1003 10 16 0.00 0.00
3:40 pm 15:40 Cloudy with Heavy Rain 53 11.7 45 7.2 74 74 S 14 22 29.57 1001 2 3 0.00 0.00
3:53 pm 15:53 Cloudy with Light Rain 53 11.7 46 7.8 77 77 S 14 22 29.62 1003 7 11 0.00 0.00
4:34 pm 16:34 Cloudy with Light Rain 49 9.4 38 3.3 66 66 WSW 28 44 29.62 1003 9 14 0.00 0.00
4:53 pm 16:53 Cloudy with Light Rain 48 8.9 36 2.2 63 63 WSW 24 39 29.67 1005 10 16 0.00 0.00
5:53 pm 17:53 Cloudy 48 8.9 34 1.1 58 58 SW 13 20 29.69 1005 10 16 0.00 0.00
6:53 pm 18:53 Mostly Cloudy 48 8.9 30 -1.1 50 50 SW 25 41 29.65 1004 10 16 0.00 0.00
7:53 pm 19:53 Clear 47 8.3 28 -2.2 48 48 SW 22 35 29.65 1004 10 16 0.00 0.00
8:53 pm 20:53 Mostly Cloudy 45 7.2 28 -2.2 52 52 SW 13 20 29.74 1007 10 16 0.00 0.00
9:53 pm 21:53 Mostly Cloudy 45 7.2 30 -1.1 56 56 S 8 13 29.79 1009 10 16 0.00 0.00
10:53 pm 22:53 Clear 43 6.1 30 -1.1 60 60 Calm 29.85 1011 10 16 0.00 0.00
11:53 pm 23:53 Clear 43 6.1 25 -3.9 49 49 NW 14 22 29.91 1013 10 16 0.00 0.00

Powered by AerisWeather